www.pogodaiklimat.ru

Погода и климат >> Архив погоды >> Россия >> Красноярский край >> Минусинск


АРХИВ ПОГОДЫ в Минусинске

Время (UTC), дата Ветер
(напр.,м/с)
 
Видим.   Явления Облачность Т
(С)
Тd
(С)
f
(%)
Тe
(С)
Тes
(С)
Комфортность P
(гПа)
Po
(гПа)
Тmin
(С)
Tmax
(С)
R
(мм)
R24
(мм)
S
(см)
18 14.05 СВ 1 н/о 4/0
[Ci fib]
-3.3 -5.7 83 -6 -6 1012.3 980.3
21 14.05 штиль 0 н/о 10/3 1000 м
[Sc Ci fib]
-3.6 -4.4 94 -5 -5 1010.1 978.2
00 15.05 СВ 3 50 км 10/0
[Ci fib]
+0.6 -2.8 78 -4 -3 1008.3 976.9 -5.0
03 15.05 СВ 3 50 км 8/6 1000 м
[Cu med, cong Ci fib]
+7.7 -3.0 47 +6 +9 1006.9 976.3
06 15.05 С 3
{10}
50 км 10/4 1000 м
[Cu med, cong Ci fib]
+8.8 -6.5 33 +7 +13 1007.0 976.5
09 15.05 С 5
{10}
50 км 10/6 600 м
[Cb cap Ci fib]
+8.4 -6.3 35 +6 +7 1008.3 977.8
12 15.05 СЗ 4
{11}
50 км 9/3 600 м
[Cb cap Ci fib]
+7.8 -4.8 40 +5 +6 1010.8 980.1 +10.7
15 15.05 СЗ 3 н/о 10/3 1000 м
[Sc Ac trans Ci fib]
+5.1 -5.0 48 +2 +2 1013.9 982.9
18 15.05 ЮЗ 2 н/о 9/3 1000 м
[Sc Ac trans Ci fib]
+2.4 -2.9 68 -0 -0 1016.5 985.0
21 15.05 ЮЗ 2 н/о в посл. час ливневой дождь 10/8 600 м
[Cb cap Ci fib]
+3.6 -1.4 70 +1 +1 1017.4 986.1
00 16.05 ЮЗ 1 50 км {ливн. осадки} 10/4 1000 м
[Sc Ac trans Ci fib]
+2.2 -1.5 76 +1 +1 1019.4 987.8 +0.4 0.0
03 16.05 СЗ 3 50 км в посл. час ливневой дождь 10/10 600 м
[Cb cap]
+5.1 +1.3 76 +2 +2 1020.2 989.0
06 16.05 З 3 50 км {ливн. осадки} 9/6 600 м
[Cb cap Ac trans Ci fib]
+7.4 -0.6 57 +5 +8 1019.2 988.2
09 16.05 З 6
{11}
50 км 10/4 600 м
[Cb cap Ac As Ci fib]
+8.4 -0.9 52 +5 +6 1019.1 988.2
12 16.05 Ю 2 50 км 10/6 600 м
[Cb cap Ac As Ci fib]
+8.7 -0.8 51 +7 +8 1019.9 989.0 +11.0 0.0
15 16.05 штиль 0 н/о 10/6 600 м
[Cb cap Ac As Ci fib]
+1.8 -1.0 82 +1 +1 1021.8 990.1
18 16.05 С 1 н/о 8/0
[Ac As Ci fib]
-1.5 -2.1 96 -4 -4 1022.7 990.6
21 16.05 штиль 0 н/о 10/4 1000 м
[Sc Ac As Ci fib]
-2.4 -2.7 98 -4 -4 1022.9 990.7
00 17.05 штиль 0 50 км 6/0
[Ac As Ci fib]
+1.0 -1.0 86 -0 +2 1022.7 990.9 -2.6
03 17.05 В 2 50 км 4/3 1000 м
[Cu med, cong Ci fib]
+7.2 -0.9 56 +6 +13 1022.0 990.9
06 17.05 СВ 2 50 км 8/8 1000 м
[Cu Sc]
+10.5 -2.6 40 +10 +13 1020.9 990.2
09 17.05 ЮВ 3 50 км {ливн. осадки} 10/8 600 м
[Cb cap Ac trans Ci fib]
+11.4 -6.0 29 +10 +11 1020.7 990.2
12 17.05 ЮЗ 4 50 км {ливн. осадки} 8/4 1000 м
[Sc diur, vesp Ac trans Ci fib]
+9.4 -0.1 51 +7 +7 1022.0 991.1 +12.2 0.0
15 17.05 ЮЗ 1 н/о 4/0
[Ci fib]
+4.2 -0.6 71 +3 +3 1023.7 992.3
18 17.05 штиль 0 н/о ясно -2.8 -3.8 93 -4 -4 1025.8 993.5
21 17.05 штиль 0 н/о ясно -4.6 -4.9 98 -6 -6 1026.1 993.5
00 18.05 штиль 0 50 км 8/0
[Ci]
+1.4 -2.4 76 +1 +3 1026.0 994.1 -5.2
03 18.05 ЮВ 3 50 км 8/3 1000 м
[Cu hum Ci fib]
+9.3 -1.3 47 +7 +13 1024.3 993.4
06 18.05 В 3 50 км 10/3 1000 м
[Cu hum Ci]
+12.8 -5.0 29 +12 +19 1021.2 990.7
09 18.05 ЮВ 3 50 км 8/3 1000 м
[Cu hum Cc]
+15.4 -8.2 19 +15 +20 1018.3 988.2
12 18.05 ЮВ 1 50 км 10/3 1000 м
[Cu Sc Ac As Ci fib]
+15.2 -5.0 24 +16 +17 1016.7 986.7 +16.3
15 18.05 СВ 2 н/о 10/4 1000 м
[Sc Ac As Ci fib]
+11.8 -3.5 34 +11 +11 1016.2 985.7
18 18.05 С 2 н/о 10/0
[Ac trans Ci fib]
+7.2 -4.5 43 +6 +6 1015.0 984.2
21 18.05 штиль 0 н/о 10/0
[Ac trans Ci fib]
+0.3 -2.7 80 -1 -1 1015.8 984.2
00 19.05 штиль 0 50 км 9/0
[Ci fib]
+3.9 -0.4 74 +3 +5 1015.2 984.1 -1.0
03 19.05 ЮВ 2 50 км 8/0
[Ci fib]
+16.4 -5.2 22 +17 +26 1012.8 983.0
06 19.05 Ю 3 50 км 9/0
[Ci sp]
+22.5 -6.0 14 +21 +31 комфорт 1009.8 980.7
09 19.05 Ю 3 50 км 10/0
[Ci fib]
+25.8 -5.8 12 +23 +30 комфорт 1006.9 978.2
12 19.05 ЮВ 1 50 км 10/8 1000 м
[Sc Ac trans Ci fib]
+24.2 -2.5 17 +23 +23 комфорт 1006.2 977.4 +26.3
15 19.05 В 1 н/о 10/4 1000 м
[Sc Ci fib]
+14.3 +2.0 43 +15 +15 1007.7 977.8
18 19.05 штиль 0 н/о 8/3 1000 м
[Sc Ac trans Ci fib]
+6.9 +1.7 69 +6 +6 1009.4 978.7
21 19.05 ЮЗ 1 н/о 10/3 1000 м
[Sc Ac trans Ci fib]
+4.6 +1.6 81 +3 +3 1009.7 978.7
00 20.05 штиль 0 50 км 10/10 1000 м
[Sc]
+8.1 +4.5 78 +7 +7 1009.7 979.1 +3.4
03 20.05 В 2 50 км {ливн. осадки} 10/10 600 м
[Cb cap]
+15.8 +5.6 51 +16 +16 1010.3 980.6
06 20.05 ЮЗ 3 50 км {ливн. осадки} 10/10 600 м
[Cb cap]
+19.7 +6.9 43 +21 +21 комфорт 1008.8 979.5
09 20.05 ЮЗ 4 50 км в посл. час ливневой дождь 8/6 600 м
[Cb cap Ac trans Ci fib]
+20.3 +9.2 49 +22 +24 комфорт 1008.2 979.0
12 20.05 З 4 50 км {ливн. осадки} 9/6 600 м
[Cb cap Ac trans Ci fib]
+21.9 +6.4 37 +23 +23 комфорт 1007.6 978.5 +24.3 0.0
15 20.05 ЮЗ 2
{12}
н/о {ливн. осадки} 6/4 600 м
[Cb cap Ac trans]
+15.0 +9.2 68 +15 +15 1008.9 979.1
18 20.05 В 1 н/о {ливн. осадки} 10/8 1000 м
[Sc Ac As Ci fib]
+10.1 +7.2 82 +10 +10 1007.7 977.4
21 20.05 штиль 0 н/о 10/10 600 м
[Cb cap]
+7.9 +6.4 90 +7 +7 1005.3 974.9
00 21.05 Ю 2 50 км {ливн. осадки} 10/10 600 м
[Cb cap]
+10.4 +8.6 89 +9 +9 1002.6 972.5 +7.7 0.3
03 21.05 Ю 2 50 км 10/10 600 м
[Cb cap]
+15.4 +9.9 70 +15 +15 1001.6 972.1
06 21.05 З 7-12
{12}
50 км 10/10 600 м
[Cb cap]
+20.9 +6.0 38 +22 +22 комфорт 1000.4 971.4
09 21.05 З 3
{13}
50 км в посл. час ливневой дождь 10/10 600 м
[Cb cap]
+18.1 +7.7 51 +18 +18 1001.4 972.1
12 21.05 Ю 4 50 км слаб. ливневой дождь 10/10 600 м
[Cb cap]
+13.2 +10.9 86 +11 +11 1003.5 973.7 +22.0 2
15 21.05 ЮЗ 3 н/о в посл. час ливневой дождь 10/10 600 м
[Cb cap]
+11.2 +7.7 79 +9 +9 1005.8 975.7

 

Местоположение метеостанции Минусинск (Красноярский край, Россия): широта 53.72 долгота 91.70 высота над уровнем моря 255 м.

В архиве по умолчанию представлена погода в Минусинске за последнюю неделю. Архивные данные за месяц целиком и за предыдущие месяцы, начиная с января 2011 года, Вы можете получить, выбрав интересующий диапазон дат из раскрывающегося списка и нажав кнопку "Ввод!".


*Определитесь, кто Вы:
робот инопланетянин человек

Внимание! Время в таблицах - всемирное. Для получения местного времени необходимо прибавить поправку, которая равна 7 ч.

Смотрите также архив погоды в соседних городах и на ближайших метеорологических станциях:

Погода в Хакасской (Хакасия, Россия) (26 км)
Погода в Теси (Красноярский край, Россия) (37 км)
Погода в Лебяжьем (Красноярский край, Россия) (54 км)
Погода в Ермаковском (Красноярский край, Россия) (67 км)
Погода в Курагино (Красноярский край, Россия) (67 км)
Погода в Саяногорске (Хакасия, Россия) (71 км)
Погода в Каратузском (Красноярский край, Россия) (77 км)
Погода в Идринском (Красноярский край, Россия) (78 км)
Погода в Уйбате (Хакасия, Россия) (88 км)
Погода в Бее (Хакасия, Россия) (91 км)

Пояснения к столбцам:

Ветер - указаны скорость ветра в м/с - средняя за 10 мин, порывы в срок и между сроками (в фигурных скобках) и направление, откуда дует ветер: С - северный, СВ - северо-восточный, В - восточный, ЮВ - юго-восточный, Ю - южный, ЮЗ - юго-западный, З - западный, СЗ - северо-западный.
Видимость - горизонтальная дальность видимости в метрах или километрах. При видимости от 1 до 10 км при отсутствии осадков обычно наблюдается дымка, при ухудшении видимости до 1 км и менее - туман. В сухую погоду видимость может ухудшаться дымом, пылью или мглою.
Явления - указаны атмосферные явления, наблюдавшиеся в срок или в последний час перед сроком; фигурными скобками обозначены явления, наблюдавшиеся между сроками (за 1-3 часа до срока); квадратными скобками обозначены град или гололедные отложения с указанием их диаметра в мм.
Облачность - указаны через наклонную черту общая и нижняя облачность в баллах и высота нижней границы облаков в метрах; квадратными скобками обозначены формы облаков: Ci - перистые, Cs - перисто-слоистые, Cc - перисто-кучевые, Ac - высококучевые, As - высокослоистые, Sc - слоисто-кучевые, Ns - слоисто-дождевые, Cu - кучевые, Cb - кучево-дождевые. Подробнее классификацию облаков см. в Атласе облаков (PDF).
T - Температура воздуха - температура, измеренная на высоте 2 м над землей.
Td - Температура точки росы - температура, при понижении до которой содержащийся в воздухе водяной пар достигнет насыщения.
f - Относительная влажность воздуха - влажноcть воздуха, измеренная на высоте 2 м над землей.
Te - Эффективная температура - температура, которую ощущает одетый по сезону человек в тени. Характеристика душности погоды. При расчете учитывается влияние влажности воздуха и скорости ветра на теплоощущения человека.
Tes - Эффективная температура на солнце - температура, которую ощущает человек, с поправкой на солнечный нагрев. Характеристика знойности погоды. Зависит от высоты солнца над горизонтом, облачности и скорости ветра. Ночью, в пасмурную погоду, а также при ветре 12 м/с и более поправка равна нулю.
P - Атмосферное давление - приведенное к уровню моря атмосферное давление.
Po - Атмосферное давление - измеренное на уровне метеостанции атмосферное давление.
Tmin - Минимальная температура - минимум температуры воздуха на высоте 2 м над землей.
Tmax - Максимальная температура - максимум температуры воздуха на высоте 2 м над землей.
R - Количество осадков - Количество выпавших осадков за период времени, мм. При наведении курсора мыши на число - период времени, за который выпало указанное количество осадков.
R24 - Количество осадков - Количество выпавших осадков за 24 часа, мм.
S - Снежный покров - Высота снежного покрова, см. При наведении курсора мыши на число - состояние снежного покрова и степень покрытия местности в баллах.